sat.trackr.live / text

‹ back to catalog

STARLINK-37110

NORAD 68222 · 2026-053R

PAYLOAD ACTIVE UNKNOWN

§ Identity

Operator
Country
US
Launch date
2026-03-17
Launch site
AFWTR
Launch vehicle
Mass (kg)
RCS (m²)

Purposes: comms

External: N2YO · Heavens-Above · Gunter

§ Orbital elements

Epoch: 2026-09-19T21:47:00.462336Z

Period
93.91 min
Inclination
97.2849°
Eccentricity
0.0001335
Mean motion
15.33446984 rev/d
Perigee alt
464.6 km
Apogee alt
466.5 km
Semi-major
6,843.7 km
B*
2.5866e-4
RAAN
136.7115°
Arg perigee
84.0640°
Mean anomaly
276.0755°
Rev number
2,998

§ Raw data

STARLINK-371101 68222U 26053R   26262.90764424  .00008285  00000+0  25866-3 0  99922 68222  97.2849 136.7115 0001335  84.0640 276.0755 15.33446984 29986

JSON: /api/v1/satellites/68222 · /tle

For live sub-satellite position, see the globe view (requires WebGL).

§ Visibility from observer

Set your observer location to see the next 7 days of passes ≥ 10°. The values pass through the URL so the page stays shareable.

No JS? Fill the form by hand. The geolocation button needs JavaScript.